Monett, MO

3:31 PM CDT on October 19, 2017 (GMT -0500)
Monett

Weather History for KHFJ - July, 2013

Change the Weather History Date:

Friday, July 26, 2013

  Actual Average (KJLN) Record (KJLN)
Temperature  
Mean Temperature 68 °F -  
Max Temperature 71 °F 90 °F 104 °F (1952)
Min Temperature 64 °F 70 °F 56 °F (2004)
Cooling Degree Days 2    
Growing Degree Days 18 (Base 50)    
Moisture  
Dew Point 68 °F    
Average Humidity 94    
Maximum Humidity 100    
Minimum Humidity 83    
Precipitation  
Precipitation 1.01 in - - ()
Sea Level Pressure  
Sea Level Pressure 30.04 in    
Wind  
Wind Speed 5 mph (SSE)    
Max Wind Speed 8 mph    
Max Gust Speed -    
Visibility 8 miles    
Events Fog , Rain , Thunderstorm    
Averages and records for this station are not official NWS values.
T = Trace of Precipitation, MM = Missing Value Source: NWS Daily Summary

Daily Weather History Graph

Daily Weather History Graph

Search for Another Location

Airport or City:

Trip Planner

Search our weather history database for the weather conditions in past years. The results will help you decide how hot, cold, wet, or windy it might be!

Date:

Astronomy

Jul. 26, 2013 Rise Set
Actual Time 6:16 AM CDT 8:27 PM CDT
Civil Twilight 5:47 AM CDT 8:56 PM CDT
Nautical Twilight 5:12 AM CDT 9:32 PM CDT
Astronomical Twilight 4:33 AM CDT 10:11 PM CDT
Moon 10:51 PM CDT (7/26) 10:45 AM CDT (7/26)
Length of Visible Light 15h 09m
Length of Day
14h 10m
Waning Gibbous, 80% of the Moon is Illuminated
Jul 26
Waning Gibbous
Jul 29
Last Quarter
Aug 6
New
Aug 14
First Quarter
Aug 20
Full

Hourly Weather History & Observations

Time (CDT) Temp. Dew Point Humidity Pressure Visibility Wind Dir Wind Speed Gust Speed Precip Events Conditions
12:15 AM 71.6 °F 66.2 °F 83% 30.06 in 10.0 mi SE 5.8 mph - N/A   Clear
12:35 AM 71.6 °F 66.2 °F 83% 30.06 in 10.0 mi SE 5.8 mph - N/A   Clear
12:55 AM 71.6 °F 66.2 °F 83% 30.06 in 10.0 mi SE 4.6 mph - N/A   Clear
1:15 AM 69.8 °F 66.2 °F 88% 30.05 in 10.0 mi SE 4.6 mph - N/A   Clear
1:35 AM 71.6 °F 68.0 °F 88% 30.05 in 10.0 mi SE 6.9 mph - N/A   Clear
1:55 AM 71.6 °F 68.0 °F 88% 30.05 in 10.0 mi SSE 8.1 mph - N/A   Mostly Cloudy
2:15 AM 71.6 °F 68.0 °F 88% 30.04 in 10.0 mi SSE 6.9 mph - N/A   Mostly Cloudy
2:35 AM 71.6 °F 68.0 °F 88% 30.04 in 10.0 mi SSE 6.9 mph - N/A   Mostly Cloudy
2:55 AM 71.6 °F 68.0 °F 88% 30.03 in 10.0 mi SSE 5.8 mph - N/A   Mostly Cloudy
3:15 AM 71.6 °F 68.0 °F 88% 30.03 in 10.0 mi SSE 5.8 mph - N/A Rain Light Rain
3:35 AM 71.6 °F 68.0 °F 88% 30.03 in 10.0 mi SSE 4.6 mph - N/A   Overcast
3:55 AM 71.6 °F 68.0 °F 88% 30.04 in 10.0 mi SSE 5.8 mph - N/A Rain Light Rain
4:15 AM 69.8 °F 68.0 °F 94% 30.03 in 10.0 mi SE 8.1 mph - N/A   Light Drizzle
4:35 AM 69.8 °F 68.0 °F 94% 30.03 in 10.0 mi SE 5.8 mph - N/A   Mostly Cloudy
4:55 AM 69.8 °F 68.0 °F 94% 30.03 in 10.0 mi SE 5.8 mph - N/A   Overcast
5:15 AM 69.8 °F 68.0 °F 94% 30.04 in 10.0 mi SSE 4.6 mph - N/A Thunderstorm Overcast
5:35 AM 69.8 °F 68.0 °F 94% 30.04 in 10.0 mi SSE 3.5 mph - N/A   Overcast
5:55 AM 69.8 °F 68.0 °F 94% 30.03 in 10.0 mi SE 5.8 mph - N/A   Overcast
6:15 AM 69.8 °F 68.0 °F 94% 30.02 in 10.0 mi SSE 6.9 mph - N/A   Mostly Cloudy
6:35 AM 71.6 °F 68.0 °F 88% 30.02 in 10.0 mi SSE 8.1 mph - N/A   Overcast
6:55 AM 71.6 °F 68.0 °F 88% 30.03 in 10.0 mi SSE 5.8 mph - N/A Thunderstorm Mostly Cloudy
7:15 AM 71.6 °F 68.0 °F 88% 30.03 in 10.0 mi SSE 8.1 mph - N/A   Mostly Cloudy
7:35 AM 69.8 °F 66.2 °F 88% 30.03 in 10.0 mi SE 6.9 mph - N/A   Overcast
7:55 AM 71.6 °F 68.0 °F 88% 30.04 in 10.0 mi SSE 5.8 mph - N/A   Overcast
8:15 AM 71.6 °F 68.0 °F 88% 30.05 in 10.0 mi South 6.9 mph - N/A Thunderstorm Overcast
8:35 AM 71.6 °F 68.0 °F 88% 30.05 in 10.0 mi SSW 8.1 mph - N/A Rain , Thunderstorm Light Thunderstorms and Rain
8:55 AM 71.6 °F 68.0 °F 88% 30.05 in 10.0 mi SW 8.1 mph - N/A   Drizzle
9:15 AM 71.6 °F 68.0 °F 88% 30.06 in 10.0 mi SW 8.1 mph - N/A Thunderstorm Drizzle
9:35 AM 69.8 °F 68.0 °F 94% 30.06 in 10.0 mi SW 6.9 mph - N/A Rain Light Rain
9:55 AM 69.8 °F 68.0 °F 94% 30.06 in 10.0 mi SW 4.6 mph - N/A   Light Drizzle
10:15 AM 69.8 °F 68.0 °F 94% 30.07 in 10.0 mi SW 4.6 mph - 0.01 in Rain Light Rain
10:35 AM 69.8 °F 68.0 °F 94% 30.07 in 10.0 mi Calm Calm - 0.01 in Rain Rain
10:55 AM 69.8 °F 68.0 °F 94% 30.07 in 7.0 mi WSW 3.5 mph - 0.02 in Rain Light Rain
11:15 AM 69.8 °F 68.0 °F 94% 30.07 in 7.0 mi WSW 3.5 mph - 0.02 in Rain Rain
11:35 AM 69.8 °F 68.0 °F 94% 30.07 in 5.0 mi Calm Calm - 0.08 in Rain Rain
11:55 AM 69.8 °F 68.0 °F 94% 30.06 in 7.0 mi Calm Calm - 0.09 in Rain Light Rain
12:15 PM 69.8 °F 68.0 °F 94% 30.07 in 7.0 mi Calm Calm - 0.02 in Rain Light Rain
12:35 PM 69.8 °F 68.0 °F 94% 30.07 in 7.0 mi WSW 4.6 mph - 0.04 in Rain Rain
12:55 PM 69.8 °F 68.0 °F 94% 30.07 in 4.0 mi West 3.5 mph - 0.10 in Rain Rain
1:15 PM 68.0 °F 68.0 °F 100% 30.06 in 3.0 mi Calm Calm - 0.10 in Rain Heavy Rain
1:35 PM 68.0 °F 68.0 °F 100% 30.05 in 4.0 mi ESE 4.6 mph - 0.15 in Rain Rain
1:55 PM 68.0 °F 68.0 °F 100% 30.05 in 3.0 mi ESE 3.5 mph - 0.23 in Rain Rain
2:15 PM 68.0 °F 68.0 °F 100% 30.05 in 5.0 mi ESE 4.6 mph - 0.02 in Rain Light Rain
2:35 PM 68.0 °F 68.0 °F 100% 30.05 in 5.0 mi East 5.8 mph - 0.06 in Rain Rain
2:55 PM 68.0 °F 68.0 °F 100% 30.05 in 1.0 mi North 4.6 mph - 0.30 in Rain Heavy Rain
3:15 PM 68.0 °F 68.0 °F 100% 30.04 in 2.0 mi Calm Calm - 0.12 in Rain Rain
3:35 PM 68.0 °F 68.0 °F 100% 30.04 in 5.0 mi North 3.5 mph - 0.14 in Rain Rain
3:55 PM 68.0 °F 68.0 °F 100% 30.04 in 5.0 mi Calm Calm - 0.18 in Rain Light Rain
4:15 PM 69.8 °F 68.0 °F 94% 30.04 in 10.0 mi Calm Calm - N/A   Light Drizzle
4:35 PM 69.8 °F 68.0 °F 94% 30.04 in 10.0 mi NE 3.5 mph - N/A   Drizzle
4:55 PM 68.0 °F 68.0 °F 100% 30.04 in 7.0 mi NE 3.5 mph - 0.01 in Rain Rain
5:15 PM 68.0 °F 68.0 °F 100% 30.04 in 3.0 mi Calm Calm - 0.08 in Rain Light Rain
5:35 PM 69.8 °F 68.0 °F 94% 30.04 in 10.0 mi Calm Calm - 0.08 in   Overcast
5:55 PM 69.8 °F 68.0 °F 94% 30.03 in 10.0 mi East 3.5 mph - 0.08 in   Overcast
6:15 PM 69.8 °F 68.0 °F 94% 30.03 in 10.0 mi ENE 4.6 mph - N/A   Overcast
6:35 PM 69.8 °F 68.0 °F 94% 30.03 in 10.0 mi Calm Calm - N/A   Overcast
6:55 PM 69.8 °F 68.0 °F 94% 30.03 in 10.0 mi Calm Calm - N/A   Overcast
7:15 PM 69.8 °F 68.0 °F 94% 30.02 in 10.0 mi Calm Calm - N/A   Overcast
7:35 PM 69.8 °F 68.0 °F 94% 30.02 in 10.0 mi Calm Calm - N/A   Overcast
7:55 PM 69.8 °F 68.0 °F 94% 30.02 in 10.0 mi Calm Calm - N/A   Overcast
8:15 PM 69.8 °F 68.0 °F 94% 30.02 in 10.0 mi Calm Calm - N/A   Overcast
8:35 PM 68.0 °F 68.0 °F 100% 30.02 in 10.0 mi Calm Calm - N/A   Mostly Cloudy
8:55 PM 68.0 °F 68.0 °F 100% 30.02 in 10.0 mi Calm Calm - N/A   Mostly Cloudy
9:15 PM 68.0 °F 68.0 °F 100% 30.02 in 10.0 mi Calm Calm - N/A   Overcast
9:35 PM 68.0 °F 68.0 °F 100% 30.03 in 10.0 mi Calm Calm - N/A   Scattered Clouds
9:55 PM 66.2 °F 66.2 °F 100% 30.02 in 7.0 mi SE 3.5 mph - N/A   Clear
10:15 PM 64.4 °F 64.4 °F 100% 30.02 in 1.8 mi SE 4.6 mph - N/A   Scattered Clouds
10:35 PM 64.4 °F 64.4 °F 100% 30.03 in 0.5 mi SE 3.5 mph - N/A Fog Fog
10:55 PM 64.4 °F 64.4 °F 100% 30.03 in 0.2 mi Calm Calm - N/A Fog Fog
11:15 PM 64.4 °F 64.4 °F 100% 30.04 in 0.2 mi Calm Calm - N/A Fog Fog
11:35 PM 64.4 °F 64.4 °F 100% 30.04 in 0.2 mi Calm Calm - N/A Fog Fog
11:55 PM 64.4 °F 64.4 °F 100% 30.04 in 0.8 mi Calm Calm - N/A   Overcast